| time (UTC) | temp C | wind direction | speed KPH | gust KPH | rain 1hr cm | rain 24hr cm | rain mn cm | humidity % | barometer mb |
| 20260505152527 | 27 | 151 | 9.7 | 24.1 | 0.00 | 0.00 | 0.00 | 64 | 1005.9 |
| 20260505151601 | 27 | 167 | 9.7 | 24.1 | 0.00 | 0.00 | 0.00 | 65 | 1005.8 |
| 20260505150516 | 26 | 184 | 12.9 | 35.4 | 0.00 | 0.00 | 0.00 | 67 | 1005.7 |
| 20260505140516 | 25 | 164 | 9.7 | 22.5 | 0.00 | 0.00 | 0.00 | 70 | 1005.4 |
| 20260505124521 | 21 | 171 | 6.4 | 22.5 | 0.00 | 0.00 | 0.00 | 83 | 1005.0 |
| 20260505123516 | 21 | 171 | 6.4 | 16.1 | 0.00 | 0.00 | 0.00 | 84 | 1004.9 |
| 20260505122546 | 21 | 191 | 9.7 | 22.5 | 0.00 | 0.00 | 0.00 | 85 | 1004.9 |
| 20260505121540 | 21 | 172 | 9.7 | 22.5 | 0.00 | 0.00 | 0.00 | 85 | 1004.7 |
| 20260505120529 | 20 | 177 | 8.0 | 20.9 | 0.00 | 0.00 | 0.00 | 86 | 1004.5 |
| 20260505115523 | 20 | 162 | 9.7 | 20.9 | 0.00 | 0.00 | 0.00 | 87 | 1004.7 |
| 20260505114518 | 20 | 176 | 9.7 | 22.5 | 0.00 | 0.00 | 0.00 | 87 | 1004.5 |
| 20260505113528 | 20 | 169 | 9.7 | 17.7 | 0.00 | 0.00 | 0.00 | 87 | 1004.4 |
| 20260505112523 | 20 | 175 | 9.7 | 24.1 | 0.00 | 0.00 | 0.00 | 87 | 1004.6 |
| 20260505111539 | 20 | 168 | 9.7 | 22.5 | 0.00 | 0.00 | 0.00 | 86 | 1004.4 |
| 20260505110529 | 20 | 180 | 9.7 | 24.1 | 0.00 | 0.00 | 0.00 | 86 | 1004.2 |
| 20260505101600 | 21 | 184 | 11.3 | 25.7 | 0.00 | 0.00 | 0.00 | 84 | 1004.5 |
| 20260505100530 | 21 | 159 | 9.7 | 24.1 | 0.00 | 0.00 | 0.00 | 83 | 1004.4 |
| 20260505095524 | 21 | 181 | 9.7 | 29.0 | 0.00 | 0.00 | 0.00 | 83 | 1004.3 |
| 20260505094520 | 21 | 165 | 11.3 | 27.4 | 0.00 | 0.00 | 0.00 | 82 | 1004.5 |
| 20260505093530 | 21 | 160 | 9.7 | 30.6 | 0.00 | 0.00 | 0.00 | 82 | 1004.5 |
| 20260505092605 | 21 | 162 | 11.3 | 33.8 | 0.00 | 0.00 | 0.00 | 83 | 1004.6 |
| 20260505091520 | 21 | 168 | 8.0 | 17.7 | 0.00 | 0.00 | 0.00 | 83 | 1004.8 |
| 20260505090515 | 21 | 172 | 8.0 | 22.5 | 0.00 | 0.00 | 0.00 | 83 | 1004.8 |
| 20260505085525 | 21 | 166 | 9.7 | 22.5 | 0.00 | 0.00 | 0.00 | 82 | 1004.7 |
| 20260505084520 | 21 | 156 | 11.3 | 30.6 | 0.00 | 0.00 | 0.00 | 82 | 1004.7 |
| 20260505083515 | 21 | 165 | 9.7 | 25.7 | 0.00 | 0.00 | 0.00 | 82 | 1004.8 |
| 20260505082525 | 21 | 176 | 8.0 | 22.5 | 0.00 | 0.00 | 0.00 | 82 | 1004.8 |
| 20260505081519 | 21 | 179 | 8.0 | 22.5 | 0.00 | 0.00 | 0.00 | 81 | 1004.9 |
| 20260505080549 | 21 | 178 | 11.3 | 30.6 | 0.00 | 0.00 | 0.00 | 81 | 1005.0 |
| 20260505075524 | 21 | 178 | 11.3 | 22.5 | 0.00 | 0.00 | 0.00 | 81 | 1005.2 |
| 20260505074519 | 21 | 172 | 9.7 | 22.5 | 0.00 | 0.00 | 0.00 | 80 | 1005.2 |
| 20260505073529 | 21 | 173 | 11.3 | 27.4 | 0.00 | 0.00 | 0.00 | 80 | 1005.3 |
| 20260505072518 | 21 | 173 | 12.9 | 25.7 | 0.00 | 0.00 | 0.00 | 80 | 1005.6 |
| 20260505071528 | 22 | 166 | 11.3 | 25.7 | 0.00 | 0.00 | 0.00 | 79 | 1005.7 |
| 20260505070523 | 22 | 173 | 11.3 | 29.0 | 0.00 | 0.00 | 0.00 | 79 | 1005.9 |
| 20260505065520 | 22 | 156 | 9.7 | 24.1 | 0.00 | 0.00 | 0.00 | 78 | 1006.0 |
| 20260505064518 | 22 | 171 | 9.7 | 27.4 | 0.00 | 0.00 | 0.00 | 78 | 1006.2 |
| 20260505063550 | 22 | 176 | 9.7 | 20.9 | 0.00 | 0.00 | 0.00 | 77 | 1006.3 |
| 20260505062533 | 22 | 170 | 9.7 | 24.1 | 0.00 | 0.00 | 0.00 | 77 | 1006.3 |
| 20260505061532 | 22 | 158 | 9.7 | 20.9 | 0.00 | 0.00 | 0.00 | 76 | 1006.5 |
| 20260505060531 | 22 | 174 | 9.7 | 25.7 | 0.00 | 0.00 | 0.00 | 75 | 1006.2 |
| 20260505055532 | 22 | 163 | 8.0 | 17.7 | 0.00 | 0.00 | 0.00 | 74 | 1006.1 |
| 20260505054526 | 22 | 165 | 6.4 | 17.7 | 0.00 | 0.00 | 0.00 | 73 | 1006.2 |
| 20260505053523 | 22 | 160 | 6.4 | 12.9 | 0.00 | 0.00 | 0.00 | 72 | 1006.2 |
| 20260505053041 | 22 | 165 | 6.4 | 20.9 | 0.00 | 0.00 | 0.00 | 72 | 1006.5 |
| 20260505052032 | 23 | 165 | 6.4 | 12.9 | 0.00 | 0.00 | 0.00 | 71 | 1006.5 |
| 20260505051044 | 23 | 162 | 6.4 | 17.7 | 0.00 | 0.00 | 0.00 | 70 | 1006.5 |
| 20260505041042 | 23 | 169 | 8.0 | 24.1 | 0.00 | 0.00 | 0.00 | 68 | 1006.6 |
| 20260505040017 | 23 | 170 | 6.4 | 20.9 | 0.00 | 0.00 | 0.00 | 68 | 1006.7 |
| 20260505035027 | 23 | 173 | 8.0 | 20.9 | 0.00 | 0.00 | 0.00 | 68 | 1006.7 |
| 20260505034026 | 23 | 170 | 9.7 | 25.7 | 0.00 | 0.00 | 0.00 | 68 | 1006.4 |
| 20260505033021 | 23 | 167 | 8.0 | 25.7 | 0.00 | 0.00 | 0.00 | 68 | 1006.5 |
| 20260505032028 | 23 | 164 | 8.0 | 17.7 | 0.00 | 0.00 | 0.00 | 68 | 1006.5 |
| 20260505031045 | 23 | 169 | 8.0 | 20.9 | 0.00 | 0.00 | 0.00 | 67 | 1006.8 |
| 20260505030022 | 23 | 168 | 8.0 | 17.7 | 0.00 | 0.00 | 0.00 | 67 | 1006.6 |
| 20260505025017 | 23 | 160 | 9.7 | 22.5 | 0.00 | 0.00 | 0.00 | 67 | 1006.5 |
| 20260505024027 | 23 | 158 | 8.0 | 20.9 | 0.00 | 0.00 | 0.00 | 67 | 1006.4 |
| 20260505023021 | 23 | 165 | 8.0 | 20.9 | 0.00 | 0.00 | 0.00 | 66 | 1006.3 |
| 20260505022016 | 24 | 172 | 9.7 | 24.1 | 0.00 | 0.00 | 0.00 | 65 | 1006.2 |
| 20260505021026 | 24 | 148 | 6.4 | 27.4 | 0.00 | 0.00 | 0.00 | 65 | 1006.3 |
| 20260505020041 | 24 | 170 | 8.0 | 22.5 | 0.00 | 0.00 | 0.00 | 64 | 1006.2 |
| 20260505015056 | 24 | 148 | 8.0 | 29.0 | 0.00 | 0.00 | 0.00 | 64 | 1006.3 |
| 20260505014025 | 25 | 151 | 6.4 | 17.7 | 0.00 | 0.00 | 0.00 | 63 | 1006.3 |
| 20260505013020 | 25 | 155 | 4.8 | 16.1 | 0.00 | 0.00 | 0.00 | 62 | 1006.2 |
| 20260505012029 | 25 | 144 | 6.4 | 12.9 | 0.00 | 0.00 | 0.00 | 61 | 1006.2 |
| 20260505011024 | 25 | 163 | 6.4 | 16.1 | 0.00 | 0.00 | 0.00 | 60 | 1006.2 |
| 20260505010019 | 25 | 158 | 4.8 | 16.1 | 0.00 | 0.00 | 0.00 | 60 | 1006.3 |
| 20260505005029 | 26 | 157 | 8.0 | 17.7 | 0.00 | 0.00 | 0.00 | 59 | 1006.2 |
| 20260505004044 | 26 | 167 | 8.0 | 29.0 | 0.00 | 0.00 | 0.00 | 58 | 1006.4 |
| 20260505003019 | 26 | 140 | 6.4 | 20.9 | 0.00 | 0.00 | 0.00 | 57 | 1006.4 |
| 20260505002050 | 26 | 160 | 8.0 | 24.1 | 0.00 | 0.00 | 0.00 | 55 | 1006.5 |
| 20260505001024 | 27 | 157 | 9.7 | 20.9 | 0.00 | 0.00 | 0.00 | 54 | 1006.7 |
| 20260505000020 | 27 | 171 | 8.0 | 20.9 | 0.00 | 0.00 | 0.00 | 53 | 1006.9 |
| 20260504235030 | 27 | 180 | 11.3 | 27.4 | 0.00 | 0.00 | 0.00 | 53 | 1006.7 |
| 20260504234025 | 28 | 178 | 9.7 | 25.7 | 0.00 | 0.00 | 0.00 | 52 | 1006.9 |
| 20260504233019 | 28 | 171 | 8.0 | 30.6 | 0.00 | 0.00 | 0.00 | 51 | 1006.9 |
| 20260504232030 | 28 | 161 | 11.3 | 29.0 | 0.00 | 0.00 | 0.00 | 50 | 1007.0 |
| 20260504231024 | 28 | 168 | 9.7 | 29.0 | 0.00 | 0.00 | 0.00 | 49 | 1007.0 |
| 20260504230019 | 28 | 159 | 11.3 | 29.0 | 0.00 | 0.00 | 0.00 | 49 | 1007.2 |
| 20260504225029 | 29 | 154 | 8.0 | 25.7 | 0.00 | 0.00 | 0.00 | 48 | 1007.2 |
| 20260504224024 | 28 | 150 | 14.5 | 27.4 | 0.00 | 0.00 | 0.00 | 48 | 1007.4 |
| 20260504223020 | 29 | 162 | 12.9 | 29.0 | 0.00 | 0.00 | 0.00 | 48 | 1007.5 |
| 20260504222015 | 29 | 152 | 12.9 | 33.8 | 0.00 | 0.00 | 0.00 | 48 | 1007.4 |
| 20260504221025 | 28 | 155 | 14.5 | 33.8 | 0.00 | 0.00 | 0.00 | 47 | 1007.4 |
| 20260504220021 | 29 | 159 | 12.9 | 33.8 | 0.00 | 0.00 | 0.00 | 47 | 1007.7 |
| 20260504215036 | 30 | 164 | 14.5 | 33.8 | 0.00 | 0.00 | 0.00 | 46 | 1007.7 |
| 20260504214026 | 30 | 185 | 12.9 | 41.8 | 0.00 | 0.00 | 0.00 | 45 | 1007.8 |
| 20260504213021 | 30 | 168 | 12.9 | 33.8 | 0.00 | 0.00 | 0.00 | 45 | 1007.9 |
| 20260504212016 | 30 | 161 | 11.3 | 30.6 | 0.00 | 0.00 | 0.00 | 45 | 1008.0 |
| 20260504211027 | 30 | 162 | 11.3 | 27.4 | 0.00 | 0.00 | 0.00 | 45 | 1008.2 |
| 20260504210022 | 30 | 168 | 12.9 | 35.4 | 0.00 | 0.00 | 0.00 | 45 | 1008.5 |
| 20260504205037 | 30 | 161 | 11.3 | 29.0 | 0.00 | 0.00 | 0.00 | 45 | 1008.7 |
| 20260504204028 | 30 | 149 | 11.3 | 27.4 | 0.00 | 0.00 | 0.00 | 45 | 1008.7 |
| 20260504203023 | 30 | 144 | 12.9 | 29.0 | 0.00 | 0.00 | 0.00 | 45 | 1009.0 |
| 20260504202018 | 30 | 151 | 9.7 | 29.0 | 0.00 | 0.00 | 0.00 | 44 | 1009.2 |
| 20260504201028 | 30 | 157 | 9.7 | 29.0 | 0.00 | 0.00 | 0.00 | 44 | 1009.5 |
| 20260504200023 | 30 | 147 | 9.7 | 24.1 | 0.00 | 0.00 | 0.00 | 45 | 1009.9 |
| 20260504195018 | 30 | 178 | 11.3 | 27.4 | 0.00 | 0.00 | 0.00 | 45 | 1010.0 |
| 20260504194028 | 30 | 167 | 11.3 | 24.1 | 0.00 | 0.00 | 0.00 | 45 | 1010.1 |
| 20260504193023 | 29 | 154 | 12.9 | 37.0 | 0.00 | 0.00 | 0.00 | 45 | 1010.3 |
| 20260504192018 | 30 | 162 | 9.7 | 30.6 | 0.00 | 0.00 | 0.00 | 44 | 1010.2 |
| 20260504191028 | 30 | 158 | 14.5 | 30.6 | 0.00 | 0.00 | 0.00 | 44 | 1010.6 |
| 20260504190023 | 29 | 186 | 12.9 | 33.8 | 0.00 | 0.00 | 0.00 | 45 | 1010.8 |
| 20260504185018 | 29 | 148 | 12.9 | 29.0 | 0.00 | 0.00 | 0.00 | 45 | 1010.7 |
| 20260504184049 | 29 | 148 | 9.7 | 27.4 | 0.00 | 0.00 | 0.00 | 45 | 1010.8 |
| 20260504183024 | 29 | 160 | 9.7 | 27.4 | 0.00 | 0.00 | 0.00 | 45 | 1010.9 |
| 20260504182039 | 28 | 171 | 9.7 | 30.6 | 0.00 | 0.00 | 0.00 | 45 | 1011.2 |
| 20260504181029 | 28 | 163 | 11.3 | 29.0 | 0.00 | 0.00 | 0.00 | 45 | 1011.4 |
| 20260504180024 | 28 | 182 | 14.5 | 33.8 | 0.00 | 0.00 | 0.00 | 45 | 1011.4 |
| 20260504175020 | 28 | 161 | 14.5 | 46.7 | 0.00 | 0.00 | 0.00 | 44 | 1011.6 |
| 20260504174015 | 28 | 161 | 12.9 | 29.0 | 0.00 | 0.00 | 0.00 | 45 | 1011.7 |
| 20260504173045 | 27 | 169 | 11.3 | 24.1 | 0.00 | 0.00 | 0.00 | 45 | 1011.8 |
| 20260504172020 | 27 | 174 | 11.3 | 33.8 | 0.00 | 0.00 | 0.00 | 45 | 1012.1 |
| 20260504171015 | 27 | 168 | 11.3 | 27.4 | 0.00 | 0.00 | 0.00 | 45 | 1012.2 |